Regional Weather Roundup
Issued by NWS

Home | Current Version | Previous Version | Text Only | Print | Product List | Glossary On
Versions: 1 2 3 4 5 6 7 8 9 10 11 12 13 14 15 16 17 18 19 20 21 22 23 24 25 26 27 28 29 30 31 32 33 34 35 36 37 38 39 40 41 42 43 44 45 46 47 48 49 50
000
ASUS43 KDTX 220601
RWRMI
MICHIGAN HOURLY REGIONAL WEATHER ROUNDUP
NATIONAL WEATHER SERVICE DETROIT/PONTIAC MI
200 AM EDT SAT JUL 22 2017

NOTE: "FAIR" INDICATES FEW OR NO CLOUDS BELOW 12,000 FEET WITH NO
SIGNIFICANT WEATHER AND/OR OBSTRUCTION TO VISIBILITY.

MIZ047>049-052>055-059>063-066>070-074>076-081>083-220700-
SOUTHEAST LOWER MICHIGAN

CITY           SKY/WX    TMP DP  RH WIND       PRES   REMARKS
ADRIAN         CLOUDY    74  67  78 S6        29.93F
6HR MIN TEMP:  74; 6HR MAX TEMP:  83; 6HR PCP: TRACE;

ALMA           CLOUDY    72  68  85 CALM      29.91F
ANN ARBOR      CLOUDY    74  70  87 S5        29.92F
BAD AXE        CLOUDY    69  63  81 CALM      29.91F
6HR MIN TEMP:  69; 6HR MAX TEMP:  76;

CARO           CLOUDY    71  68  89 E3        29.90F
DETROIT CITY   CLOUDY    78  67  68 SE3       29.92F
6HR MIN TEMP:  77; 6HR MAX TEMP:  81;

DETROIT        CLOUDY    78  72  81 SE6       29.91F
6HR MIN TEMP:  78; 6HR MAX TEMP:  83; 6HR PCP: TRACE;

FLINT          CLOUDY    74  68  81 S5        29.91F
6HR MIN TEMP:  73; 6HR MAX TEMP:  81;

GROSSE ILE     PTCLDY    78  73  85 S6        29.91F
6HR MIN TEMP:  76; 6HR MAX TEMP:  81;

HILLSDALE      LGT RAIN  72  68  88 SE6       29.93F
HOWELL         CLOUDY    74  68  81 SE5       29.91F
6HR MIN TEMP:  74; 6HR MAX TEMP:  80;


CITY           SKY/WX    TMP DP  RH WIND       PRES   REMARKS
JACKSON        LGT RAIN  75  70  84 S8        29.92F
6HR MIN TEMP:  75; 6HR MAX TEMP:  81; 6HR PCP:  0.01;

LAMBERTVILLE   CLOUDY    75  70  84 S5        29.93S
6HR MIN TEMP:  74; 6HR MAX TEMP:  81;

LANSING        CLOUDY    75  68  78 CALM      29.91F
6HR MIN TEMP:  74; 6HR MAX TEMP:  81; 6HR PCP: TRACE;

LAPEER         CLOUDY    73  65  74 SE3       29.92F
6HR MIN TEMP:  73; 6HR MAX TEMP:  80;

MASON          CLOUDY    73  68  84 CALM      29.91S
MONROE         LGT RAIN  77  70  80 S5        29.91F
6HR MIN TEMP:  73; 6HR MAX TEMP:  82;

MT. CLEMENS    CLOUDY    75  72  89 S6        29.91F
6HR MIN TEMP:  73; 6HR MAX TEMP:  79; 6HR PCP: TRACE;

PONTIAC        CLOUDY    76  69  79 SE6       29.91F
6HR MIN TEMP:  75; 6HR MAX TEMP:  83; 6HR PCP: TRACE;

PORT HOPE        N/A     71  66  84 SE6       29.89F
6HR MIN TEMP:  71; 6HR MAX TEMP:  76;

PORT HURON     LGT RAIN  72  68  88 CALM      29.93F
TRI CITIES     CLOUDY    77  70  79 SW6       29.90F
6HR MIN TEMP:  76; 6HR MAX TEMP:  84; 6HR PCP: TRACE;

MIDLAND        MOCLDY    75  69  81 NW3       29.87F
6HR MIN TEMP:  75; 6HR MAX TEMP:  84;

TROY           CLOUDY    78  67  70 CALM      29.94F
SAGINAW HB     CLOUDY    73  68  83 S7        29.89F
$$
MIZ043>046-050>051-056>058-064>065-071>073-077>080-220700-
SOUTHWEST LOWER MICHIGAN

CITY           SKY/WX    TMP DP  RH WIND       PRES   REMARKS
BATTLE CREEK   CLOUDY    72  67  84 S7        29.91F
6HR MIN TEMP:  72; 6HR MAX TEMP:  82; 6HR PCP:  0.07;

BENTON HARBOR  HVY RAIN  72  69  90 SE9       29.86F FOG
6HR MIN TEMP:  72; 6HR MAX TEMP:  76; 6HR PCP:  0.34;

BIG RAPIDS     LGT RAIN  67  63  84 N5        29.89F
6HR MIN TEMP:  67; 6HR MAX TEMP:  77; 6HR PCP:  0.03;

COLDWATER      LGT RAIN  73  73 100 W3        29.93S
6HR MIN TEMP:  73; 6HR MAX TEMP:  82;

FREMONT        CLOUDY    70  69  97 SW6G18    29.90S
HOLLAND        LGT RAIN  74  69  85 E5        29.89F
6HR MIN TEMP:  73; 6HR MAX TEMP:  77; 6HR PCP:  0.02;

GRAND RAPIDS   CLOUDY    73  71  93 E6        29.89F
6HR MIN TEMP:  73; 6HR MAX TEMP:  79; 6HR PCP:  0.01;

IONIA          CLOUDY    72  70  95 CALM      29.89F
6HR MIN TEMP:  72; 6HR MAX TEMP:  82;

KALAMAZOO      LGT RAIN  70  63  78 S5        29.91F
6HR MIN TEMP:  70; 6HR MAX TEMP:  83; 6HR PCP:  0.11;

LUDINGTON      CLOUDY    69  66  92 NE3       29.87F
6HR MIN TEMP:  69; 6HR MAX TEMP:  73;

MARSHALL       LGT RAIN  73  73  98 S3        29.91F
6HR MIN TEMP:  73; 6HR MAX TEMP:  82; 6HR PCP:  0.04;

MUSKEGON       CLOUDY    72  69  90 E6        29.89F
6HR MIN TEMP:  71; 6HR MAX TEMP:  78; 6HR PCP:  0.08;

SOUTH HAVEN    LGT RAIN  70  67  92 S6        29.85F
$$
MIZ016>042-220700-
NORTHERN LOWER MICHIGAN

CITY           SKY/WX    TMP DP  RH WIND       PRES   REMARKS
ALPENA         MOCLDY    63  60  90 CALM      29.90F
6HR MIN TEMP:  62; 6HR MAX TEMP:  74;

BEAVER ISLAND  CLOUDY    64  63  96 E3        29.87F
6HR MIN TEMP:  63; 6HR MAX TEMP:  76;

BELLAIRE       CLOUDY    67  64  91 NW3       29.87F
6HR MIN TEMP:  66; 6HR MAX TEMP:  78;

CADILLAC       CLOUDY    73  64  72 S6        29.92F
CHARLEVOIX     CLOUDY    70  65  82 SE6       29.90F
FRANKFORT      CLOUDY    71  68  90 CALM      29.87F
GAYLORD        CLOUDY    71  61  70 CALM      29.92F
6HR MIN TEMP:  67; 6HR MAX TEMP:  80;

GRAYLING       CLOUDY    68  63  83 E3        29.90F
6HR MIN TEMP:  68; 6HR MAX TEMP:  77;

HARBOR SPRINGS CLOUDY    68  63  83 E6        29.88F
HOUGHTON LAKE  CLOUDY    70  65  84 SE6       29.92F
6HR MIN TEMP:  69; 6HR MAX TEMP:  78;

MANISTEE       CLOUDY    71  65  81 S6        29.90R
OSCODA         MOCLDY    69  65  86 W8        29.90F
6HR MIN TEMP:  69; 6HR MAX TEMP:  73;

PELLSTON       CLOUDY    63  61  93 CALM      29.89F
6HR MIN TEMP:  63; 6HR MAX TEMP:  79;

ROGERS CITY    CLOUDY    66  60  79 CALM      29.90F
TRAVERSE CITY  PTCLDY    73  63  70 VRB3      29.87S
6HR MIN TEMP:  72; 6HR MAX TEMP:  79;

$$
MIZ007>008-015-220700-
EASTERN UPPER MICHIGAN

CITY           SKY/WX    TMP DP  RH WIND       PRES   REMARKS
KINROSS        MOCLDY    63  52  67 NE3       29.90F
6HR MIN TEMP:  61; 6HR MAX TEMP:  70;

MACKINAC ISLAN PTCLDY    63  54  72 E5        29.89F
6HR MIN TEMP:  63; 6HR MAX TEMP:  73;

NEWBERRY       PTCLDY    59  58  97 CALM      29.88F
6HR MIN TEMP:  59; 6HR MAX TEMP:  70;

S. S. MARIE    CLOUDY    62  55  77 NE3       29.89F
6HR MIN TEMP:  61; 6HR MAX TEMP:  74;

MUNISING         N/A     66  64  93 CALM      29.84F
6HR MIN TEMP:  64; 6HR MAX TEMP:  71;

$$
MIZ004>006-011>014-085-220700-
CENTRAL UPPER MICHIGAN

CITY           SKY/WX    TMP DP  RH WIND       PRES   REMARKS
MANISTIQUE     CLEAR     66  63  89 E5        29.85F
6HR MIN TEMP:  65; 6HR MAX TEMP:  71;

ESCANABA       CLEAR     62  62 100 CALM      29.85R
6HR MIN TEMP:  61; 6HR MAX TEMP:  73;

MENOMINEE      CLOUDY    67  66  97 CALM      29.87R FOG
6HR MIN TEMP:  67; 6HR MAX TEMP:  80;

SAWYER-GWINN   MOCLDY    62  60  92 CALM      29.85F
6HR MIN TEMP:  59; 6HR MAX TEMP:  73;

$$
MIZ001>003-009>011-084-220700-
WESTERN UPPER MICHIGAN

CITY           SKY/WX    TMP DP  RH WIND       PRES   REMARKS
IRON MOUNTAIN  CLEAR     64  62  93 CALM      29.84F
6HR MIN TEMP:  64; 6HR MAX TEMP:  81;

HOUGHTON       CLOUDY    63  52  67 E9        29.83F
6HR MIN TEMP:  63; 6HR MAX TEMP:  68;

COPPER HARBOR    N/A     60  54  80 SE9       29.85F
6HR MIN TEMP:  60; 6HR MAX TEMP:  67; 6HR PCP:  0.02;

IRONWOOD       CLOUDY    67  65  93 E8        29.78F
6HR MIN TEMP:  63; 6HR MAX TEMP:  83;

$$

ABBREVIATIONS USED IN REMARKS
   TC - TEMPERATURE IN CELSIUS
  WCI - WIND CHILL INDEX
   HX - HEAT INDEX
  VSB - VISIBILITY





USA.gov is the U.S. government's official web portal to all federal, state and local government web resources and services.